Regional Weather Roundup
Issued by NWS

Home | Current Version | Previous Version | Graphics & Text | Print | Product List | Glossary On
Versions: 1 2 3 4 5 6 7 8 9 10 11 12 13 14 15 16 17 18 19 20 21 22 23 24 25 26 27 28 29 30 31 32 33 34 35 36 37 38 39 40 41 42 43 44 45 46 47 48 49 50
000
ASUS43 KMPX 261501
RWRMN
WEATHER ROUNDUP FOR MINNESOTA
NATIONAL WEATHER SERVICE TWIN CITIES/CHANHASSEN MN
1000 AM CDT FRI AUG 26 2016


NOTE: "FAIR" INDICATES FEW OR NO CLOUDS BELOW 12,000 FEET WITH NO
SIGNIFICANT WEATHER AND/OR OBSTRUCTIONS TO VISIBILITY. N/A MEANS
CURRENT SKY AND/OR WEATHER CONDITIONS ARE NOT AVAILABLE.

MNZ060>063-068>070-261600-
   Twin Cities Metro

CITY           SKY/WX    TMP DP  RH WIND       PRES   REMARKS
TWIN CITIES    PTSUNNY   65  55  70 CALM      30.19S
ST PAUL        MOSUNNY   65  58  78 SE3       30.19F
CRYSTAL        SUNNY     67  53  61 CALM      30.18S
BLAINE         MOSUNNY   66  57  72 CALM      30.18F
LAKEVILLE      CLOUDY    64  57  77 CALM      30.20S
EDEN PRAIRIE   SUNNY     65  57  75 CALM      30.19S
LAKEVILLE      CLOUDY    64  57  77 CALM      30.20S
SOUTH ST PAUL  CLOUDY    66  58  75 CALM      30.19S
LAKE ELMO      FAIR      64  59  82 CALM      30.20F
$$
MNZ001>005-007-008-013>017-022>024-027-028-261600-
   Northwest Minnesota

CITY           SKY/WX    TMP DP  RH WIND       PRES   REMARKS
BEMIDJI        SUNNY     61  53  74 SW3       30.12S
HALLOCK        SUNNY     63  55  77 S6        30.05S
ROSEAU         SUNNY     63  55  77 S5        30.08R
WARROAD        SUNNY     63  55  77 CALM      30.08S
THIEF RVR FALL SUNNY     61  53  75 S7        30.11R
CROOKSTON      SUNNY     61  52  72 S6        30.10S
FOSSTON        SUNNY     61  52  72 S10       30.13R
DETROIT LAKES  SUNNY     63  52  67 SW3       30.15S
MOORHEAD       SUNNY     61  54  77 SW6       30.14S
PARK RAPIDS    SUNNY     64  53  67 S3        30.15R
MAHNOMEN       FAIR      60  52  75 S7        30.13R
$$
MNZ006-009>011-018-025>026-261600-
   North Central Minnesota

CITY           SKY/WX    TMP DP  RH WIND       PRES   REMARKS
BAUDETTE       SUNNY     62  54  74 VRB3      30.09S
FLAG ISLAND    SUNNY     61  48  63 CALM      30.06S
INTL FALLS     SUNNY     63  55  75 VRB3      30.11S
WASKISH        SUNNY     64  55  72 SW5       30.10S
BIG FORK       SUNNY     66  55  68 SW6       30.12S
LONGVILLE      SUNNY     64  55  72 SW5       30.14S
GRAND RAPIDS   SUNNY     65  53  65 S6        30.16R
CRANE LAKE     SUNNY     57  54  88 S1        30.14S
ORR            SUNNY     63  52  67 CALM      30.11R
COOK           SUNNY     63  54  72 SE3       30.14S
WALKER         FAIR      63  53  70 CALM      30.14R
$$
MNZ012-019>021-037-261600-
   Northeast Minnesota

CITY           SKY/WX    TMP DP  RH WIND       PRES   REMARKS
DULUTH         SUNNY     66  52  60 VRB5      30.16R
ELY            SUNNY     59  55  88 CALM      30.15S
HIBBING        SUNNY     63  51  65 CALM      30.15R
EVELETH        SUNNY     63  50  62 CALM      30.16R
DULUTH HARBOR  SUNNY     66  55  68 CALM      30.16S
TWO HARBORS    SUNNY     68  54  60 CALM      30.14R
SILVER BAY     SUNNY     66  52  59 W3        30.14R
G MARAIS ARPRT SUNNY     61  45  55 N7        30.15R
$$
MNZ029>031-032-039>041-046>048-054>057-064-261600-
   West Central Minnesota

CITY           SKY/WX    TMP DP  RH WIND       PRES   REMARKS
FERGUS FALLS   SUNNY     63  54  72 SW3       30.17S
WHEATON        SUNNY     64  57  77 S5        30.18S
MORRIS         SUNNY     66  55  68 CALM      30.16F
ALEXANDRIA     SUNNY     63  55  75 SW5       30.19S
ELBOW LAKE     FAIR      62  56  83 S6        30.17S
WADENA         SUNNY     64  55  72 W5        30.15S
GLENWOOD       SUNNY     64  55  72 CALM      30.18F
APPLETON       SUNNY     64  55  72 CALM      30.17F
BENSON         SUNNY     63  55  77 CALM      30.18F
ORTONVILLE     SUNNY     63  55  77 CALM      30.17S
MADISON        SUNNY     64  55  72 CALM      30.17F
WILLMAR        FAIR      63  57  82 CALM      30.20S
$$
MNZ033>034-036-042>043-049>051-058-059-261600-
   Central Minnesota

CITY           SKY/WX    TMP DP  RH WIND       PRES   REMARKS
ST CLOUD       SUNNY     65  57  75 CALM      30.18S
SAUK CENTRE    FAIR      64  55  73 CALM      30.18F
PAYNESVILLE    SUNNY     65  58  79 CALM      30.19F
AITKIN         SUNNY     68  54  60 SW5       30.15S
PINE RIVER     SUNNY     64  54  68 W3        30.18S
BRAINERD       SUNNY     63  54  72 SW6       30.17R
STAPLES        SUNNY     64  52  63 W3        30.16S
LONG PRAIRIE   FAIR      63  55  77 CALM      30.18S
LITTLE FALLS   SUNNY     63  55  77 CALM      30.18S
LITCHFIELD     CLOUDY    64  57  77 CALM      30.19F
BUFFALO        SUNNY     64  56  77 CALM      30.20F
MAPLE LAKE     MOSUNNY   66  59  79 CALM      30.20S
HUTCHINSON     SUNNY     64  59  83 CALM      30.20S
$$
MNZ037-044-045-052-053-261600-
   East Central Minnesota

CITY           SKY/WX    TMP DP  RH WIND       PRES   REMARKS
PRINCETON      SUNNY     66  57  72 CALM      30.18F
MORA           SUNNY     63  54  72 CALM      30.20R
CAMBRIDGE      SUNNY     66  55  68 CALM      30.17S
RUSH CITY      SUNNY     65  55  72 CALM      30.18F
MOOSE LAKE     SUNNY     63  52  67 CALM      30.16S
HINCKLEY       FAIR      64  57  77 CALM      30.18R
CLOQUET        SUNNY     63  52  67 CALM      30.17R
MCGREGOR       SUNNY     64  54  68 S3        30.16S
$$
MNZ071>073-080-081-089-090-097-098-261600-
   Southwest Minnesota

CITY           SKY/WX    TMP DP  RH WIND       PRES   REMARKS
MONTEVIDEO     SUNNY     68  57  68 CALM      30.20S
GRANITE FALLS  MOSUNNY   64  57  78 CALM      30.21S
CANBY          SUNNY     65  55  68 CALM      30.19F
MARSHALL       MOSUNNY   63  54  72 SE3       30.19F
REDWOOD FALLS  CLOUDY    62  56  80 CALM      30.19F
OLIVIA         MOSUNNY   61  55  82 CALM      30.19R
PIPESTONE      CLOUDY    64  52  63 E3        30.19S
WINDOM         MOSUNNY   64  55  72 SE3       30.21S
WORTHINGTON    CLOUDY    62  55  77 E6        30.21S
JACKSON          N/A     63  54  72 E6        30.21F
TRACY          CLOUDY    64  56  78 SE3       30.20S
$$
MNZ065>067-074>077-082>085-091>093-261600-
   South Central Minnesota

CITY           SKY/WX    TMP DP  RH WIND       PRES   REMARKS
MANKATO        CLOUDY    63  55  77 CALM      30.21R
NEW ULM          N/A     63  57  82 CALM      30.20R
ST JAMES       CLOUDY    57  54  88 CALM      30.21
FAIRMONT       CLOUDY    62  57  83 E3        30.21F
GLENCOE        CLOUDY    65  60  83 CALM      30.19S
FARIBAULT      CLOUDY    66  57  72 CALM      30.21S
OWATONNA       MOSUNNY   64  55  72 CALM      30.21S
WASECA         CLOUDY    61  57  88 CALM      30.22S
ALBERT LEA       N/A     64  55  72 CALM      30.21S
$$
MNZ078>079-086>088-094>096-261600-
   Southeast Minnesota

CITY           SKY/WX    TMP DP  RH WIND       PRES   REMARKS
ROCHESTER      CLOUDY    65  58  78 E3        30.22S
RED WING       CLOUDY    66  57  72 CALM      30.18F
STANTON        MOSUNNY   64  57  77 CALM      30.19S
DODGE CENTER   CLOUDY    68  61  77 SE3       30.21S
WINONA         MOSUNNY   64  55  72 CALM      30.21S
AUSTIN         MOSUNNY   63  55  77 CALM      30.21S
PRESTON        PTSUNNY   62  55  76 CALM      30.22S
$$
ABBREVIATIONS USED IN REMARKS
   TC - TEMPERATURES IN CELSIUS
  WCI - WIND CHILL INDEX
   HX - HEAT INDEX
  VSB - VISIBILITY
$$




USA.gov is the U.S. government's official web portal to all federal, state and local government web resources and services.